This is the latest recevied weather packets stored in our database for station/object HEBOWX. If no packets are shown the sender has not sent any weather packets the latest 1 day(s).
| Time | Temp. | Humidity | Pressure | Rain* | Wind** | Luminosity | Snow |
|---|---|---|---|---|---|---|---|
| 1778067031 | 8.89° C | 62% | 1015.3 hPa | 0 mm | - | - | - |
| 1778066733 | 8.33° C | 63% | 1015.2 hPa | 0 mm | - | - | - |
| 1778066131 | 7.78° C | 67% | 1015.2 hPa | 0 mm | - | - | - |
| 1778065231 | 7.78° C | 68% | 1015.1 hPa | 0 mm | - | - | - |
| 1778064933 | 7.78° C | 69% | 1015 hPa | 0 mm | - | - | - |
| 1778064632 | 7.78° C | 69% | 1015 hPa | 0 mm | - | - | - |
| 1778064331 | 7.78° C | 69% | 1015 hPa | 0 mm | - | - | - |
| 1778063431 | 8.33° C | 69% | 1014.8 hPa | 0 mm | - | - | - |
| 1778063136 | 8.33° C | 68% | 1014.6 hPa | 0 mm | - | - | - |
| 1778062831 | 8.33° C | 68% | 1014.6 hPa | 0 mm | - | - | - |
| 1778062532 | 8.33° C | 69% | 1014.7 hPa | 0 mm | - | - | - |
| 1778061931 | 8.89° C | 69% | 1014.6 hPa | 0 mm | - | - | - |
| 1778061336 | 9.44° C | 66% | 1014.5 hPa | 0 mm | - | - | - |
| 1778060131 | 10° C | 66% | 1014.3 hPa | 0 mm | - | - | - |
| 1778059831 | 10° C | 66% | 1014.4 hPa | 0 mm | - | - | - |
| 1778058632 | 10.56° C | 64% | 1014.3 hPa | 0 mm | - | - | - |
| 1778055332 | 10.56° C | 61% | 1014.3 hPa | 0 mm | - | - | - |
| 1778054732 | 11.11° C | 63% | 1014.3 hPa | 0 mm | - | - | - |
| 1778054431 | 11.11° C | 63% | 1014.3 hPa | 0 mm | - | - | - |
| 1778053231 | 11.11° C | 60% | 1014.2 hPa | 0 mm | - | - | - |
| 1778052931 | 11.11° C | 58% | 1014.2 hPa | 0 mm | - | - | - |
| 1778052032 | 11.11° C | 57% | 1014.1 hPa | 0 mm | - | - | - |
| 1778051730 | 11.11° C | 58% | 1014.1 hPa | 0 mm | - | - | - |
| 1778051431 | 11.11° C | 58% | 1014.1 hPa | 0 mm | - | - | - |
| 1778050530 | 11.11° C | 57% | 1014 hPa | 0 mm | - | - | - |
* Rain latest hour (hover to see other rain measurements)
** Current wind speed in m/s (hover to see current wind gust speed)